Location: Ripley
(48.3812°N, 115.4473°W)
Time: 10:32:16
(UTC+00:00)

MOZHAYETS 4 - Visible Passes

Search period start: 29 June 2022 00:00
Search period end: 09 July 2022 00:00
Orbit: 660 x 679 km, 98.2° (Epoch: 28 June)

Date Brightness Start Highest point End Pass type
(mag) Time Alt. Az. Time Alt. Az. Time Alt. Az.
29 Jun 10.6 08:10:45 10° ENE 08:12:09 11° NE 08:13:33 10° NE visible
29 Jun 8.0 09:43:49 10° SSE 09:48:24 72° ENE 09:53:01 10° N visible
30 Jun 10.1 08:40:54 10° ESE 08:44:16 20° ENE 08:47:37 10° NNE visible
30 Jun 7.9 10:16:25 10° S 10:20:57 57° W 10:25:31 10° NNW visible
01 Jul 9.1 09:12:17 10° SE 09:16:31 37° ENE 09:20:44 10° N visible
01 Jul 8.7 10:49:39 10° SSW 10:53:39 28° W 10:57:39 10° NW visible
02 Jul 10.6 08:11:13 10° ENE 08:12:39 11° NE 08:14:04 10° NE visible
02 Jul 7.9 09:44:19 10° SSE 09:48:54 73° ENE 09:53:30 10° N visible
03 Jul 10.1 08:41:23 10° ESE 08:44:45 20° ENE 08:48:06 10° NNE visible
03 Jul 7.9 10:16:55 10° S 10:21:27 56° W 10:25:59 10° NNW visible
04 Jul 9.1 09:12:46 10° SE 09:16:59 37° ENE 09:21:14 10° N visible
04 Jul 8.7 10:50:10 10° SSW 10:54:09 28° W 10:58:07 10° NW visible
05 Jul 10.6 08:11:42 10° ENE 08:13:07 11° NE 08:14:33 10° NE visible
05 Jul 7.9 09:44:48 10° SSE 09:49:23 73° ENE 09:53:59 10° N visible
06 Jul 10.1 08:41:51 10° ESE 08:45:13 20° ENE 08:48:35 10° NNE visible
06 Jul 7.9 10:17:26 10° S 10:21:56 56° W 10:26:28 10° NNW visible
07 Jul 9.1 09:13:14 10° SE 09:17:28 37° ENE 09:21:41 10° N visible
07 Jul 8.8 10:50:40 10° SSW 10:54:37 28° W 10:58:35 10° NW visible
08 Jul 10.6 08:12:08 10° ENE 08:13:35 11° NE 08:15:02 10° NE visible
08 Jul 7.9 09:45:17 10° SSE 09:49:51 74° ENE 09:54:27 10° N visible
